Location: D�rnast
(49.6426°N, 11.9755°E)
Time: 00:43:57
(UTC+00:00)

N. Korean satellite - Visible Passes

Search period start: 01 December 2021 00:00
Search period end: 11 December 2021 00:00
Orbit: 447 x 495 km, 97.3° (Epoch: 30 November)

Date Brightness Start Highest point End Pass type
(mag) Time Alt. Az. Time Alt. Az. Time Alt. Az.
01 Dec 6.2 04:42:20 10° N 04:45:45 82° WNW 04:49:08 10° SSW visible
01 Dec 10.2 16:56:42 10° W 16:57:18 10° W 16:57:54 10° WNW visible
02 Dec 7.6 04:13:58 10° NNE 04:17:14 43° E 04:20:28 10° S visible
02 Dec 8.0 05:48:02 10° NNW 05:50:07 15° WNW 05:52:11 10° W visible
02 Dec 9.4 16:25:49 10° SW 16:28:33 21° W 16:31:17 10° NW visible
03 Dec 9.1 03:45:58 10° NE 03:48:34 20° E 03:51:09 10° SE visible
03 Dec 7.2 05:18:49 10° N 05:21:49 29° WNW 05:24:48 10° SW visible
03 Dec 8.0 15:56:31 10° S 15:59:54 42° W 16:03:16 10° NNW visible
04 Dec 6.3 04:50:03 10° N 04:53:25 65° WNW 04:56:46 10° SSW visible
05 Dec 7.1 04:21:33 10° NNE 04:24:54 54° E 04:28:12 10° S visible
05 Dec 8.2 05:56:03 10° NNW 05:57:41 13° WNW 05:59:18 10° W visible
05 Dec 9.6 16:33:53 10° SW 16:36:15 17° W 16:38:38 10° NW visible
06 Dec 8.7 03:53:24 10° NE 03:56:15 24° E 03:59:04 10° SSE visible
06 Dec 7.4 05:26:35 10° NNW 05:29:24 24° WNW 05:32:12 10° WSW visible
06 Dec 8.4 16:04:19 10° SSW 16:07:33 34° W 16:10:46 10° NNW visible
07 Dec 9.8 03:26:05 10° ENE 03:27:29 12° E 03:28:52 10° ESE visible
07 Dec 6.5 04:57:40 10° N 05:00:59 51° WNW 05:04:17 10° SSW visible
08 Dec 6.6 04:29:04 10° NNE 04:32:28 68° ESE 04:35:50 10° S visible
08 Dec 8.4 06:04:12 10° NW 06:05:09 11° WNW 06:06:07 10° WNW visible
08 Dec 9.8 16:41:58 10° SW 16:43:52 14° W 16:45:47 10° WNW visible
09 Dec 8.3 04:00:47 10° NNE 04:03:49 30° E 04:06:50 10° SSE visible
09 Dec 7.7 05:34:16 10° NNW 05:36:53 21° WNW 05:39:27 10° WSW visible
09 Dec 8.8 16:12:04 10° SSW 16:15:07 28° W 16:18:09 10° NW visible
10 Dec 9.5 03:33:03 10° NE 03:35:23 14° E 03:37:01 10° SE visible
10 Dec 7.3 05:05:14 10° N 05:09:32 31° WSW 05:11:40 10° SW visible
10 Dec 7.1 15:43:00 10° S 15:46:26 62° WSW 15:49:52 10° NNW visible
